Seattle Boeing, WA
on Wednesday, February 13, 2013

Wednesday
Previous Day Next Day
Daily Summary
 ActualAverage (KSEA)Record (KSEA)
Temperature
Mean Temperature °F 43°F  
Max Temperature 50°F 50°F 59°F (1996)
Min Temperature 46°F 37°F 18°F (1949)
Degree Days
Heating Degree Days 17 22  
Month to date heating degree days 286  
Since 1 July heating degree days 2935  
Cooling Degree Days 0 0  
Month to date cooling degree days 0  
Year to date cooling degree days 0  
Moisture
Dew Point 40°F   
Average Humidity 74    
Maximum Humidity 86    
Minimum Humidity 66    
Precipitation
Precipitation 0.00 in 0.13 in 1.40 in (1982)
Month to date precipitation 1.71  
Year to date precipitation 7.28  
Snow
Snow 0.00 in in 1.10 in (1986)
Month to date snowfall  
Since 1 July snowfall  
Snow Depth in   
Wind
Wind Speed 5 mph   
Max Wind Speed 10 mph   
Max Gust Speed mph   
Visibility 10 miles   
Events     

Key: T is trace of precipitation, MM is missing value
Source: NWS Daily Summary
Time(PST)TemperatureDew PointHumidity Pressure Visibility Wind DirectionWind SpeedGust SpeedPrecipitationEvents Conditions
12:53 AM 50.0°F 43.0°F 77% 30.34 in 10.0 miles SSW 6.9 mph - N/A   Overcast
1:53 AM 50.0°F 43.0°F 77% 30.34 in 10.0 miles SSW 10.4 mph - N/A   Overcast
2:53 AM 48.0°F 43.0°F 83% 30.35 in 10.0 miles SSE 5.8 mph - 0.00 in   Mostly Cloudy
3:53 AM 48.9°F 39.9°F 71% 30.36 in 10.0 miles South 8.1 mph - N/A   Overcast
4:53 AM 46.9°F 37.9°F 71% 30.37 in 10.0 miles SW 5.8 mph - N/A   Mostly Cloudy
5:00 AM 46.4°F 37.4°F 71% 30.37 in 10.0 miles SSW 8.1 mph - N/A   Clear
5:53 AM 46.9°F 37.9°F 71% 30.38 in 10.0 miles Variable 5.8 mph - N/A   Overcast
6:53 AM 46.9°F 37.9°F 71% 30.39 in 10.0 miles SSW 5.8 mph - N/A   Mostly Cloudy
7:53 AM 46.9°F 37.9°F 71% 30.40 in 10.0 miles SSW 5.8 mph - N/A   Overcast
8:53 AM 46.9°F 39.0°F 74% 30.42 in 10.0 miles SSE 5.8 mph - N/A   Overcast
9:53 AM 46.9°F 37.9°F 71% 30.44 in 10.0 miles SSW 5.8 mph - N/A   Overcast
10:53 AM 48.0°F 39.0°F 71% 30.44 in 10.0 miles Variable 6.9 mph - N/A   Overcast
11:53 AM 48.0°F 39.0°F 71% 30.45 in 10.0 miles Calm Calm - N/A   Overcast
12:53 PM 48.9°F 39.0°F 69% 30.44 in 10.0 miles South 4.6 mph - N/A   Overcast
1:53 PM 50.0°F 39.0°F 66% 30.43 in 10.0 miles SW 4.6 mph - N/A   Overcast
2:53 PM 50.0°F 39.0°F 66% 30.43 in 10.0 miles Variable 3.5 mph - N/A   Overcast
3:53 PM 50.0°F 39.0°F 66% 30.44 in 10.0 miles Calm Calm - N/A   Overcast
4:53 PM 48.9°F 39.0°F 69% 30.45 in 10.0 miles Calm Calm - N/A   Overcast
5:53 PM 48.9°F 39.9°F 71% 30.45 in 10.0 miles SSW 3.5 mph - N/A   Overcast
6:53 PM 48.9°F 39.9°F 71% 30.46 in 10.0 miles Calm Calm - N/A   Overcast
7:01 PM 48.2°F 39.2°F 71% 30.46 in 10.0 miles Calm Calm - N/A   Overcast
7:08 PM 48.2°F 39.2°F 71% 30.46 in 10.0 miles Calm Calm - N/A   Overcast
7:53 PM 48.0°F 41.0°F 77% 30.47 in 10.0 miles Calm Calm - N/A   Overcast
8:53 PM 48.0°F 41.0°F 77% 30.47 in 10.0 miles ESE 3.5 mph - N/A   Overcast
9:53 PM 46.9°F 43.0°F 86% 30.48 in 10.0 miles SE 6.9 mph - N/A   Overcast
10:53 PM 46.9°F 42.1°F 83% 30.49 in 10.0 miles South 5.8 mph - N/A   Overcast
11:10 PM 46.4°F 41.0°F 81% 30.49 in 10.0 miles South 4.6 mph - N/A   Overcast
11:50 PM 46.4°F 41.0°F 81% 30.51 in 10.0 miles South 4.6 mph - N/A   Overcast
11:53 PM 46.9°F 41.0°F 80% 30.51 in 10.0 miles South 4.6 mph - N/A   Overcast
Moon Phase
Feb. 13 Feb. 17 Feb. 25 Mar. 04 Mar. 11
Sunrise:07:17 AM (PST) Moon Rise:08:29 AM (PST)2/13
Sunset:05:30 PM (PST) Moon Set:10:00 PM (PST)2/13

Copyright © 2014 The Weather Underground, Inc.